Location: Pilipovskiye Korichintsy
(49.1833°N, 27.4667°E)
Time: 21:54:06
(UTC+00:00)

ARIANE 5 R/B - Pass Details

Date: 14 July 2020
Orbit: 749 x 794 km, 98.6° (Epoch: 10 August)

Event Time Altitude Azimuth Distance (km) Brightness Sun altitude
Rises 01:09:46 0° 14° (NNE) 3,235 7.0 -9.3°
Reaches altitude 10° 01:12:04 10° 15° (NNE) 2,311 6.1 -9.1°
Maximum altitude 01:17:11 86° 104° (ESE) 779 2.6 -8.5°
Drops below altitude 10° 01:22:19 10° 195° (SSW) 2,323 4.5 -8.0°
Enters shadow 01:23:10 - 195° (SSW) 2,661 4.8 -7.9°
